Tracking 25612 objects as of 20-May-2022
HD Live streaming from Space Station
objects crossing your sky now

COSMOS 2251 DEB

Track COSMOS 2251 DEB now!
10-day predictions


NORAD ID: 40231
Int'l Code: 1993-036BVL
Perigee: 536.1 km
Apogee: 611.3 km
Inclination: 74.0 °
Period: 96.0 minutes
Semi major axis: 6944 km
RCS: Unknown
Launch date: June 16, 1993
Source: Commonwealth of Independent States (former USSR) (CIS)
Launch site: PLESETSK MISSILE AND SPACE COMPLEX (PKMTR)

Note: This is SATELLITE DEBRIS
aabbcc
Your satellite tracking list
Your tracking list is empty




NASA's NSSDC Master Catalog

Two Line Element Set (TLE):
1 40231U 93036BVL 22139.56488131  .00037238  00000-0  28821-2 0  9990
2 40231  74.0070 226.6222 0054112 297.6846  61.8855 15.00115560416702
Source of the keplerian elements: AFSPC